GALAXY 25 (G-25) 1 24812C 97026A 22171.00000000 .00000087 00000+0 00000+0 0 1719 2 24812 3.6987 83.6854 0006428 3.9864 246.6519 1.00271608 15 GALAXY 25 (G-25) 1 24812C 97026A 22174.00000000 .00000087 00000+0 00000+0 0 1745 2 24812 3.7064 83.6112 0006012 358.8538 254.8053 1.00270727 13 GALAXY 25 (G-25) [PM] 1 24812C 97026A 22174.75993056 .00000087 00000+0 00000+0 0 1749 2 24812 3.7084 83.6034 0006624 354.1436 173.8411 1.00271535 19 INTELSAT 5 (IS-5) [PM] 1 24916C 97046A 22167.00000000 .00000034 00000+0 00000+0 0 1678 2 24916 7.2273 61.0915 0004858 55.7717 313.5008 1.00273613 18 INTELSAT 5 (IS-5) 1 24916C 97046A 22171.00000000 .00000034 00000+0 00000+0 0 1718 2 24916 7.2333 61.0482 0004671 62.2455 310.9975 1.00274683 11 INTELSAT 5 (IS-5) 1 24916C 97046A 22174.00000000 .00000034 00000+0 00000+0 0 1744 2 24916 7.2411 61.0124 0004490 64.3066 311.9272 1.00275751 19 GALAXY 11 (G-11) 1 26038C 99071A 22171.00000000 -.00000072 00000+0 00000+0 0 1718 2 26038 3.0028 87.7727 0000275 61.5311 25.7638 1.00269482 17 GALAXY 11 (G-11) 1 26038C 99071A 22173.94164352 -.00000072 00000+0 00000+0 0 1736 2 26038 3.0108 87.6724 0000345 142.4333 286.8549 1.00271548 10 INTELSAT 9 (IS-9) 1 26451C 00043A 22171.00000000 -.00000191 00000+0 00000+0 0 1710 2 26451 7.2187 61.2296 0002656 346.4804 170.4683 1.00270643 12 INTELSAT 9 (IS-9) 1 26451C 00043A 22174.00000000 -.00000191 00000+0 00000+0 0 1746 2 26451 7.2264 61.1935 0002319 341.8109 178.1178 1.00270704 12 INTELSAT 9 (IS-9) [PM] 1 26451C 00043A 22175.55731481 -.00000191 00000+0 00000+0 0 1752 2 26451 7.2300 61.1721 0004453 59.9824 302.1221 1.00276406 11 INTELSAT 1R (IS-1R) 1 26608C 00072A 22171.00000000 -.00000047 00000+0 00000+0 0 1716 2 26608 4.4873 80.4472 0001077 145.9904 198.8372 1.00270480 13 INTELSAT 1R (IS-1R) 1 26608C 00072A 22173.94164352 -.00000047 00000+0 00000+0 0 1734 2 26608 4.4949 80.4105 0001455 169.8013 156.9562 1.00270557 17 INTELSAT 10 (IS-10) 1 26766C 01019A 22171.00000000 .00000127 00000+0 00000+0 0 1711 2 26766 5.5842 73.3587 0004714 22.6333 349.9636 1.00274405 15 INTELSAT 10 (IS-10) 1 26766C 01019A 22174.00000000 .00000127 00000+0 00000+0 0 1747 2 26766 5.5924 73.3087 0004474 20.9088 354.6941 1.00272755 10 INTELSAT 10 (IS-10) [PM] 1 26766C 01019A 22174.00000000 .00000127 00000+0 00000+0 0 1747 2 26766 5.5922 73.3079 0004483 20.9003 354.7042 1.00272783 10 INTELSAT 901 1 26824C 01024A 22171.00000000 -.00000134 00000+0 00000+0 0 1711 2 26824 0.0025 34.6111 0001119 95.8778 110.1910 1.00269657 13 INTELSAT 901 1 26824C 01024A 22174.00000000 -.00000112 00000+0 00000+0 0 1743 2 26824 0.0013 358.1517 0001124 147.5610 97.9245 1.00270392 11 INTELSAT 902 1 26900C 01039A 22171.00000000 -.00000192 00000+0 00000+0 0 1716 2 26900 2.4122 89.0273 0003595 7.0676 121.9844 1.00275139 15 INTELSAT 902 1 26900C 01039A 22174.00000000 -.00000192 00000+0 00000+0 0 1742 2 26900 2.4197 88.9346 0003223 6.9146 125.2013 1.00271908 19 INTELSAT 902 [PM] 1 26900C 01039A 22178.84650463 -.00000192 00000+0 00000+0 0 1786 2 26900 2.4335 88.8939 0003221 13.3272 68.3449 1.00272121 18 INTELSAT 904 1 27380C 02007A 22171.00000000 -.00000123 00000+0 00000+0 0 1719 2 27380 3.2445 85.9588 0003079 359.8043 152.9153 1.00271450 11 INTELSAT 904 1 27380C 02007A 22174.00000000 -.00000123 00000+0 00000+0 0 1745 2 27380 3.2522 85.8797 0002772 2.0869 153.6706 1.00271827 10 INTELSAT 904 [PM] 1 27380C 02007A 22176.86061343 -.00000123 00000+0 00000+0 0 1760 2 27380 3.2605 85.8424 0003124 8.8121 99.6267 1.00271860 14 INTELSAT 905 [PM] 1 27438C 02027A 22170.94568287 -.00000094 00000+0 00000+0 0 1709 2 27438 3.0660 86.7157 0002629 346.1847 151.1830 1.00271020 10 INTELSAT 905 1 27438C 02027A 22171.00000000 -.00000094 00000+0 00000+0 0 1712 2 27438 3.0663 86.7131 0002518 342.8355 174.1394 1.00271498 18 INTELSAT 905 1 27438C 02027A 22174.00000000 -.00000094 00000+0 00000+0 0 1748 2 27438 3.0740 86.6297 0002195 343.6043 176.4115 1.00271999 12 GALAXY 3C (G-3C) 1 27445C 02030A 22171.00000000 -.00000244 00000+0 00000+0 0 1711 2 27445 0.0301 174.8587 0001698 147.4169 210.8402 1.00270482 16 GALAXY 3C (G-3C) 1 27445C 02030A 22173.94164352 -.00003241 00000+0 00000+0 0 1739 2 27445 0.0065 47.5032 0001870 277.4867 190.0336 1.00273018 18 INTELSAT 906 1 27513C 02041A 22171.00000000 .00000105 00000+0 00000+0 0 1714 2 27513 2.0811 90.5436 0003117 7.3936 234.3961 1.00272000 10 INTELSAT 906 1 27513C 02041A 22174.00000000 .00000105 00000+0 00000+0 0 1740 2 27513 2.0884 90.4309 0002865 357.9636 246.9023 1.00270706 17 INTELSAT 906 [PM] 1 27513C 02041A 22174.53771991 .00000105 00000+0 00000+0 0 1742 2 27513 2.0897 90.4147 0003188 358.6534 80.3364 1.00270482 14 GALAXY 12 (G-12) 1 27715C 03013B 22171.00000000 .00000149 00000+0 00000+0 0 1716 2 27715 3.2779 85.5787 0002181 12.3782 41.2211 1.00272226 11 GALAXY 12 (G-12) 1 27715C 03013B 22174.00000000 .00000149 00000+0 00000+0 0 1742 2 27715 3.2851 85.4989 0002014 9.6221 47.0131 1.00271180 10 GALAXY 12 (G-12) [PM] 1 27715C 03013B 22179.60266204 .00000149 00000+0 00000+0 0 1798 2 27715 3.3005 85.4715 0001059 22.5545 256.6012 1.00270109 16 GALAXY 23 (G-23) 1 27854C 03034A 22171.00000000 .00000108 00000+0 00000+0 0 1718 2 27854 0.0093 277.3381 0003214 177.2536 52.5801 1.00271181 15 GALAXY 23 (G-23) 1 27854C 03034A 22174.00000000 .00000103 00000+0 00000+0 0 1749 2 27854 0.0449 269.2457 0002823 188.5047 52.3860 1.00274838 16 GALAXY 23 (G-23) [PM] 1 27854C 03034A 22175.47550926 .00000103 00000+0 00000+0 0 1759 2 27854 0.0425 271.6204 0002492 181.9973 229.1753 1.00270091 16 GALAXY 13 1 27954C 03044A 22171.00000000 .00000137 00000+0 00000+0 0 1712 2 27954 0.0048 316.0269 0000703 53.2528 131.8893 1.00268848 14 GALAXY 13 1 27954C 03044A 22174.00000000 .00000245 00000+0 00000+0 0 1748 2 27954 0.0053 322.2758 0002086 37.1845 144.6650 1.00270347 11 GALAXY 13 [PM] 1 27954C 03044A 22186.47875000 -.00003488 00000+0 00000+0 0 1868 2 27954 0.0019 68.7466 0000882 293.1549 326.8725 1.00269805 12 INTELSAT 10-02 1 28358C 04022A 22171.00000000 .00000094 00000+0 00000+0 0 1710 2 28358 0.0021 326.6383 0000881 155.6304 144.9140 1.00269516 17 INTELSAT 10-02 1 28358C 04022A 22173.94164352 .00000079 00000+0 00000+0 0 1731 2 28358 0.0063 315.1276 0000957 197.0756 96.8754 1.00270377 15 GALAXY 28 (G-28) 1 28702C 05022A 22171.00000000 -.00000095 00000+0 00000+0 0 1716 2 28702 0.0105 338.3724 0002709 145.6907 55.1272 1.00269383 12 GALAXY 28 (G-28) 1 28702C 05022A 22173.94164352 -.00000095 00000+0 00000+0 0 1734 2 28702 0.0104 356.9403 0002773 138.4691 25.6586 1.00270441 19 GALAXY 28 (G-28) [PM] 1 28702C 05022A 22174.29295139 -.00000095 00000+0 00000+0 0 1742 2 28702 0.0175 315.0746 0002591 161.3688 171.4423 1.00273061 13 GALAXY 14 (G-14) 1 28790C 05030A 22171.00000000 .00000246 00000+0 00000+0 0 1719 2 28790 1.2698 92.2967 0002180 359.0765 209.6893 1.00271375 19 GALAXY 14 (G-14) 1 28790C 05030A 22174.00000000 .00000246 00000+0 00000+0 0 1745 2 28790 1.2769 92.1444 0001901 0.7788 211.1049 1.00273742 13 GALAXY 14 (G-14) [PM] 1 28790C 05030A 22177.08333333 .00000246 00000+0 00000+0 0 1777 2 28790 1.2859 92.0886 0001600 351.7423 253.2671 1.00268890 19 GALAXY 15 (G-15) 1 28884C 05041A 22171.00000000 .00000169 00000+0 00000+0 0 1719 2 28884 0.0166 319.8808 0001727 134.7794 40.5141 1.00270602 18 GALAXY 15 (G-15) 1 28884C 05041A 22174.00000000 .00000169 00000+0 00000+0 0 1745 2 28884 0.0124 339.4088 0001460 117.6314 41.0917 1.00272511 10 GALAXY 15 (G-15) [PM] 1 28884C 05041A 22176.71018519 .00000167 00000+0 00000+0 0 1769 2 28884 0.0106 4.3501 0001521 88.5738 303.5612 1.00270458 18 GALAXY 16 (G-16) 1 29236C 06023A 22171.00000000 -.00000021 00000+0 00000+0 0 1710 2 29236 0.0000 340.7248 0003117 121.2761 67.1697 1.00271678 13 GALAXY 16 (G-16) 1 29236C 06023A 22174.00000000 -.00000060 00000+0 00000+0 0 1749 2 29236 0.0015 36.2859 0002868 70.7741 65.0663 1.00272187 18 GALAXY 16 (G-16) [PM] 1 29236C 06023A 22177.28131944 -.00000037 00000+0 00000+0 0 1771 2 29236 0.0274 288.2050 0002972 187.1798 161.2566 1.00273575 11 GALAXY 17 (G-17) 1 31307C 07016B 22171.00000000 -.00000081 00000+0 00000+0 0 1711 2 31307 0.0068 324.5608 0002578 129.3139 83.3077 1.00271167 12 GALAXY 17 (G-17) 1 31307C 07016B 22174.00000000 -.00000087 00000+0 00000+0 0 1743 2 31307 0.0036 355.5802 0002323 102.1936 82.3650 1.00271586 10 GALAXY 17 (G-17) [PM] 1 31307C 07016B 22180.98837963 -.00000084 00000+0 00000+0 0 1807 2 31307 0.0181 67.2933 0002191 40.0854 75.4590 1.00273527 18 INTELSAT 11 (IS-11) 1 32253C 07044B 22171.00000000 -.00000230 00000+0 00000+0 0 1719 2 32253 0.0003 19.7896 0001690 77.8253 127.5810 1.00270066 15 INTELSAT 11 (IS-11) 1 32253C 07044B 22174.00000000 -.00000178 00000+0 00000+0 0 1746 2 32253 0.0095 44.0588 0001286 54.0162 130.0630 1.00272970 17 INTELSAT 11 (IS-11) [PM] 1 32253C 07044B 22177.63733796 -.00000183 00000+0 00000+0 0 1772 2 32253 0.0036 351.7839 0001108 112.3922 356.9973 1.00272875 17 HORIZONS-2 1 32388C 07063B 22171.00000000 -.00000092 00000+0 00000+0 0 1715 2 32388 0.0201 62.8962 0003078 29.6970 260.4401 1.00271746 19 HORIZONS-2 1 32388C 07063B 22174.00000000 -.00000092 00000+0 00000+0 0 1741 2 32388 0.0141 330.2139 0002874 119.1467 266.6211 1.00271231 15 HORIZONS-2 [PM] 1 32388C 07063B 22175.93250000 -.00000092 00000+0 00000+0 0 1752 2 32388 0.0113 346.9445 0002783 105.8054 240.8376 1.00273138 15 GALAXY 18 (G-18) 1 32951C 08024A 22171.00000000 .00000074 00000+0 00000+0 0 1718 2 32951 0.0000 349.6626 0003366 111.7571 43.7568 1.00271237 16 GALAXY 18 (G-18) 1 32951C 08024A 22174.00000000 -.00002988 00000+0 00000+0 0 1741 2 32951 0.0049 36.3229 0002922 61.0519 50.7531 1.00266316 14 GALAXY 18 (G-18) [PM] 1 32951C 08024A 22177.34861111 .00000115 00000+0 00000+0 0 1771 2 32951 0.0134 313.7259 0002725 145.1439 178.0649 1.00273116 10 INTELSAT 25 (IS-25) 1 33153C 08034A 22171.00000000 -.00000139 00000+0 00000+0 0 1717 2 33153 0.0308 142.6007 0003182 316.0409 138.0371 1.00271616 13 INTELSAT 25 (IS-25) 1 33153C 08034A 22174.00000000 -.00000139 00000+0 00000+0 0 1743 2 33153 0.0284 124.5283 0002912 338.0479 137.0619 1.00271933 18 INTELSAT 25 (IS-25) [PM] 1 33153C 08034A 22178.59031250 -.00000098 00000+0 00000+0 0 1780 2 33153 0.0092 303.2977 0002698 165.6232 347.7511 1.00273122 16 GALAXY 19 (G-19) 1 33376C 08045A 22171.00000000 -.00000049 00000+0 00000+0 0 1716 2 33376 0.0289 96.3283 0003077 355.2992 79.5524 1.00270697 11 GALAXY 19 (G-19) 1 33376C 08045A 22174.00000000 -.00000134 00000+0 00000+0 0 1747 2 33376 0.0010 11.3123 0002837 81.8998 80.9217 1.00272076 12 GALAXY 19 (G-19) [PM] 1 33376C 08045A 22178.77232639 -.00000049 00000+0 00000+0 0 1789 2 33376 0.0293 295.1451 0002762 165.8882 355.8519 1.00271571 11 INTELSAT 14 (IS-14) 1 36097C 09064A 22171.00000000 -.00000183 00000+0 00000+0 0 1710 2 36097 0.0235 89.5927 0002665 10.3616 123.2246 1.00270228 16 INTELSAT 14 (IS-14) 1 36097C 09064A 22174.00000000 -.00000188 00000+0 00000+0 0 1741 2 36097 0.0090 316.3544 0002456 144.7032 125.0769 1.00272707 17 INTELSAT 14 (IS-14) [PM] 1 36097C 09064A 22180.83652778 -.00000178 00000+0 00000+0 0 1800 2 36097 0.0066 51.8894 0002261 54.9113 67.2244 1.00273481 10 INTELSAT 15 (IS-15) 1 36106C 09067A 22171.00000000 -.00000094 00000+0 00000+0 0 1715 2 36106 0.0072 10.4164 0002403 90.7729 252.1432 1.00270905 10 INTELSAT 15 (IS-15) 1 36106C 09067A 22174.00000000 -.00000093 00000+0 00000+0 0 1740 2 36106 0.0131 28.1151 0002062 73.7154 254.4546 1.00272702 10 INTELSAT 15 (IS-15) [PM] 1 36106C 09067A 22178.28719907 -.00000095 00000+0 00000+0 0 1783 2 36106 0.0164 334.3365 0002015 130.2941 359.2856 1.00271466 10 INTELSAT 16 (IS-16) 1 36397C 10006A 22171.00000000 -.00000155 00000+0 00000+0 0 1710 2 36397 0.0052 6.8915 0002188 101.4575 83.6332 1.00270766 13 INTELSAT 16 (IS-16) 1 36397C 10006A 22174.00000000 -.00000155 00000+0 00000+0 0 1746 2 36397 0.0107 27.7288 0001857 82.6742 84.5299 1.00272636 17 INTELSAT 16 (IS-16) [PM] 1 36397C 10006A 22178.73688657 -.00000155 00000+0 00000+0 0 1784 2 36397 0.0136 335.2107 0001728 140.7155 348.9619 1.00272115 12 INTELSAT 17 (IS-17) 1 37238C 10065B 22171.00000000 .00000087 00000+0 00000+0 0 1713 2 37238 0.0417 231.6575 0002853 230.1778 232.3437 1.00271403 15 INTELSAT 17 (IS-17) 1 37238C 10065B 22174.00000000 -.00003387 00000+0 00000+0 0 1746 2 37238 0.0370 229.6495 0002654 233.5907 233.8953 1.00271264 15 INTELSAT 17 (IS-17) [PM] 1 37238C 10065B 22177.32268519 .00000089 00000+0 00000+0 0 1773 2 37238 0.0481 249.7079 0002547 218.1073 348.7623 1.00272553 15 INTELSAT NEW DAWN 1 37392C 11016A 22171.00000000 .00000274 00000+0 00000+0 0 1719 2 37392 0.0203 223.1312 0001606 203.8687 233.9736 1.00260462 17 INTELSAT NEW DAWN 1 37392C 11016A 22174.00000000 .00000246 00000+0 00000+0 0 1744 2 37392 0.0352 259.2250 0000608 137.9432 266.7654 1.00274668 15 INTELSAT NEW DAWN [PM] 1 37392C 11016A 22176.03781250 .00000245 00000+0 00000+0 0 1763 2 37392 0.0305 263.5192 0001011 109.6856 306.3791 1.00269233 16 INTELSAT 18 (IS-18) 1 37834C 11056A 22171.00000000 .00000143 00000+0 00000+0 0 1719 2 37834 0.0191 353.3807 0002006 103.1649 351.6328 1.00270746 15 INTELSAT 18 (IS-18) 1 37834C 11056A 22174.00000000 .00000142 00000+0 00000+0 0 1744 2 37834 0.0211 1.6850 0001743 96.3912 353.0521 1.00271443 18 INTELSAT 18 (IS-18) [PM] 1 37834C 11056A 22179.01134259 .00000143 00000+0 00000+0 0 1790 2 37834 0.0207 7.5609 0001687 97.3003 355.3056 1.00273078 13 INTELSAT 22 (IS-22) 1 38098C 12011A 22171.00000000 .00000032 00000+0 00000+0 0 1711 2 38098 0.0084 64.7536 0002875 40.4232 235.1005 1.00271441 17 INTELSAT 22 (IS-22) 1 38098C 12011A 22174.00000000 -.00002849 00000+0 00000+0 0 1746 2 38098 0.0192 75.2149 0002605 31.7984 236.2231 1.00272412 14 INTELSAT 22 (IS-22) [PM] 1 38098C 12011A 22176.80740741 .00000032 00000+0 00000+0 0 1762 2 38098 0.0121 315.0275 0002578 158.6970 162.9524 1.00272589 19 INTELSAT 19 (IS-19) 1 38356C 12030A 22171.00000000 .00000033 00000+0 00000+0 0 1710 2 38356 0.0174 290.0866 0003118 165.3053 338.7936 1.00271321 13 INTELSAT 19 (IS-19) 1 38356C 12030A 22174.00000000 .00000044 00000+0 00000+0 0 1748 2 38356 0.0062 320.7383 0002776 133.7423 342.6718 1.00270755 15 INTELSAT 19 (IS-19) [PM] 1 38356C 12030A 22175.28472222 .00000004 00000+0 00000+0 0 1755 2 38356 0.0027 341.1104 0002760 113.4668 86.3387 1.00271168 16 INTELSAT 20 (IS-20) 1 38740C 12043A 22171.00000000 .00000064 00000+0 00000+0 0 1715 2 38740 0.0247 125.8798 0001298 61.4807 149.3202 1.00270150 11 INTELSAT 20 (IS-20) [PM] 1 38740C 12043A 22173.51805556 .00000077 00000+0 00000+0 0 1738 2 38740 0.0204 111.9645 0001458 74.9291 338.7625 1.00271834 18 INTELSAT 20 (IS-20) 1 38740C 12043A 22173.94164352 -.00002782 00000+0 00000+0 0 1733 2 38740 0.0301 129.1703 0001367 68.2340 121.1616 1.00270113 15 INTELSAT 21 (IS-21) 1 38749C 12045A 22171.00000000 -.00000195 00000+0 00000+0 0 1712 2 38749 0.0251 87.3198 0002221 8.0428 114.8288 1.00270458 16 INTELSAT 21 (IS-21) 1 38749C 12045A 22174.00000000 -.00000192 00000+0 00000+0 0 1745 2 38749 0.0067 328.8699 0001970 127.6078 116.6498 1.00273132 14 INTELSAT 21 (IS-21) [PM] 1 38749C 12045A 22175.45486111 -.00000237 00000+0 00000+0 0 1757 2 38749 0.0040 348.9896 0001889 108.9923 280.3361 1.00272954 16 INTELSAT 23 (IS-23) 1 38867C 12057A 22171.00000000 -.00000195 00000+0 00000+0 0 1716 2 38867 0.0367 109.9424 0000853 123.8811 341.3915 1.00269787 16 INTELSAT 23 (IS-23) 1 38867C 12057A 22174.00000000 -.00000195 00000+0 00000+0 0 1742 2 38867 0.0349 110.6905 0000832 91.3899 16.0625 1.00271982 15 INTELSAT 23 (IS-23) [PM] 1 38867C 12057A 22176.66134259 -.00000196 00000+0 00000+0 0 1763 2 38867 0.0279 99.2581 0001815 88.6129 270.9727 1.00268553 10 INTELSAT 30 (IS-30) 1 40271C 14062A 22171.00000000 -.00000302 00000+0 00000+0 0 1716 2 40271 0.0000 356.8141 0001669 88.9882 87.3259 1.00270010 15 INTELSAT 30 (IS-30) 1 40271C 14062A 22173.94164352 -.00000213 00000+0 00000+0 0 1735 2 40271 0.0034 51.0441 0001372 32.9496 71.0170 1.00270495 19 INTELSAT 30 (IS-30) [PM] 1 40271C 14062A 22174.31473380 -.00000059 00000+0 00000+0 0 1740 2 40271 0.0047 328.8597 0001402 97.5373 223.2926 1.00272676 18 INTELSAT 34 (IS-34) 1 40874C 15039A 22171.00000000 -.00000195 00000+0 00000+0 0 1710 2 40874 0.0083 10.5230 0000291 100.6339 101.5324 1.00270188 15 INTELSAT 34 (IS-34) 1 40874C 15039A 22173.94164352 -.00000195 00000+0 00000+0 0 1738 2 40874 0.0108 6.7997 0000206 349.2552 198.5241 1.00270429 16 INTELSAT 34 (IS-34) [PM] 1 40874C 15039A 22174.66739583 -.00000195 00000+0 00000+0 0 1743 2 40874 0.0119 333.4322 0000389 359.2341 123.8926 1.00273247 11 INTELSAT 31 (IS-31) 1 41581C 16035A 22171.00000000 -.00000049 00000+0 00000+0 0 1711 2 41581 0.0242 233.0284 0001732 345.2948 314.8089 1.00270245 14 INTELSAT 31 (IS-31) 1 41581C 16035A 22173.94164352 -.00000064 00000+0 00000+0 0 1736 2 41581 0.0144 271.0438 0001780 319.1608 284.8171 1.00270715 14 INTELSAT 31 (IS-31) [PM] 1 41581C 16035A 22175.30797454 -.00000069 00000+0 00000+0 0 1750 2 41581 0.0207 262.7559 0001720 324.4461 61.0413 1.00272793 17 INTELSAT 36 (IS-36) 1 41747C 16053A 22171.00000000 .00000066 00000+0 00000+0 0 1713 2 41747 0.0084 4.0153 0002021 352.7692 339.9030 1.00269546 10 INTELSAT 36 (IS-36) 1 41747C 16053A 22173.94164352 .00000066 00000+0 00000+0 0 1731 2 41747 0.0112 2.7703 0002303 348.3320 327.4712 1.00270812 17 INTELSAT 36 (IS-36) [PM] 1 41747C 16053A 22174.35840278 .00000066 00000+0 00000+0 0 1746 2 41747 0.0114 349.8907 0002260 355.2845 123.8383 1.00271971 10 INTELSAT 33E 1 41748C 16053B 22171.00000000 .00000140 00000+0 00000+0 0 1717 2 41748 0.0172 44.9568 0002059 54.2883 228.9139 1.00271164 15 INTELSAT 33E 1 41748C 16053B 22174.00000000 .00000139 00000+0 00000+0 0 1741 2 41748 0.0135 19.6774 0001813 87.8470 223.5926 1.00272822 10 INTELSAT 33E [PM] 1 41748C 16053B 22176.87394676 .00000139 00000+0 00000+0 0 1765 2 41748 0.0119 2.0022 0001828 114.2996 172.2833 1.00274048 17 INTELSAT 32E 1 41945C 17007B 22171.00000000 -.00000084 00000+0 00000+0 0 1714 2 41945 0.0001 24.2057 0000185 341.1441 219.6628 1.00269442 11 INTELSAT 32E [PM] 1 41945C 17007B 22173.10354167 -.00000179 00000+0 00000+0 0 1730 2 41945 0.0006 11.0850 0000432 293.8756 319.3746 1.00273976 14 INTELSAT 32E 1 41945C 17007B 22174.00000000 -.00000179 00000+0 00000+0 0 1745 2 41945 0.0100 48.6580 0000240 241.1534 298.1363 1.00269958 16 INTELSAT 35E 1 42818C 17041A 22171.00000000 -.00000148 00000+0 00000+0 0 1713 2 42818 0.0241 263.5484 0001684 186.6774 143.4662 1.00271257 14 INTELSAT 35E [PM] 1 42818C 17041A 22173.59283565 -.00000148 00000+0 00000+0 0 1730 2 42818 0.0310 275.2240 0001391 172.9749 1.4664 1.00271200 19 INTELSAT 35E 1 42818C 17041A 22174.00000000 -.00000148 00000+0 00000+0 0 1749 2 42818 0.0299 276.4799 0001428 171.9777 148.1873 1.00271196 13 INTELSAT 37E 1 42950C 17059A 22171.00000000 -.00000050 00000+0 00000+0 0 1711 2 42950 0.0058 62.0253 0002835 52.6013 135.5496 1.00269626 14 INTELSAT 37E 1 42950C 17059A 22174.00000000 -.00000051 00000+0 00000+0 0 1748 2 42950 0.0181 79.5026 0002534 12.7387 160.8936 1.00271635 12 INTELSAT 37E [PM] 1 42950C 17059A 22177.09930556 -.00000050 00000+0 00000+0 0 1770 2 42950 0.0037 37.2845 0002381 60.7998 193.8518 1.00271146 12 AZERSPACE 2 (IS-38) 1 43632C 18074A 22171.00000000 .00000230 00000+0 00000+0 0 1716 2 43632 0.0000 20.4147 0001525 77.8451 215.0332 1.00269891 16 AZERSPACE 2 (IS-38) 1 43632C 18074A 22173.94164352 .00000207 00000+0 00000+0 0 1738 2 43632 0.0063 36.6684 0001252 64.9698 193.5403 1.00271591 16 HORIZONS-3E 1 43633C 18074B 22171.00000000 .00000030 00000+0 00000+0 0 1715 2 43633 0.0170 141.1649 0001206 159.5955 136.4109 1.00269867 17 HORIZONS-3E 1 43633C 18074B 22173.94164352 .00000054 00000+0 00000+0 0 1739 2 43633 0.0117 174.0730 0001455 127.7798 117.2091 1.00270213 16 INTELSAT 39 (IS-39) 1 44476C 19049B 22171.00000000 .00000130 00000+0 00000+0 0 1715 2 44476 0.0000 9.7386 0000223 260.0681 60.3257 1.00270168 19 INTELSAT 39 (IS-39) [PM] 1 44476C 19049B 22173.37309028 .00000148 00000+0 00000+0 0 1730 2 44476 0.0018 342.4252 0000489 303.3042 181.0482 1.00272038 12 INTELSAT 39 (IS-39) 1 44476C 19049B 22173.94164352 .00000158 00000+0 00000+0 0 1733 2 44476 0.0013 1.2797 0000517 288.4012 22.3354 1.00270846 13 GALAXY 30 (G-30) 1 46114C 20056C 22171.00000000 .00000127 00000+0 00000+0 0 1712 2 46114 0.0178 85.1291 0002081 8.8778 49.1817 1.00269604 18 GALAXY 30 (G-30) 1 46114C 20056C 22174.00000000 .00000139 00000+0 00000+0 0 1741 2 46114 0.0001 3.2354 0001754 90.6882 52.2111 1.00272101 13 GALAXY 30 (G-30) [PM] 1 46114C 20056C 22177.50069444 .00000120 00000+0 00000+0 0 1779 2 46114 0.0111 51.6800 0001572 36.9398 241.2282 1.00269848 14